FW9738 Weather Reports


Display with metric or nautical units.
time (UTC)temp
F
wind
direction
speed
MPH
gust
MPH
rain 1hr
in
rain 24hr
in
rain mn
in
humidity
%
barometer
mb
20260506171106 80 23 4.0 8.0 0.00 0.00 0.00 69 999.0
20260506170556 80 68 2.0 6.0 0.00 0.00 0.00 67 999.1
20260506170046 80 68 0.0 7.0 0.00 0.00 0.00 67 999.0
20260506165537 81 45 3.0 7.0 0.00 0.00 0.00 67 999.4
20260506164514 79 68 2.0 7.0 0.00 0.00 0.00 69 999.5
20260506164004 80 90 0.0 11.0 0.00 0.00 0.00 67 999.6
20260506163455 80 23 0.0 11.0 0.00 0.00 0.00 67 999.5
20260506162945 80 338 3.0 6.0 0.00 0.00 0.00 67 999.8
20260506162435 78 338 0.0 7.0 0.00 0.00 0.00 69 1000.0
20260506161926 80 45 2.0 7.0 0.00 0.00 0.00 69 999.8
20260506161414 79 45 1.0 7.0 0.00 0.00 0.00 69 1000.0
20260506160905 80 23 0.0 7.0 0.00 0.00 0.00 70 999.9
20260506160355 79 23 2.0 7.0 0.00 0.00 0.00 70 999.8
20260506155844 79 68 2.0 6.0 0.00 0.00 0.00 70 1000.0
20260506155334 78 23 0.0 8.0 0.00 0.00 0.00 70 1000.2
20260506153254 78 315 2.0 7.0 0.00 0.00 0.00 69 1000.7
20260506152743 78 90 0.0 7.0 0.00 0.00 0.00 72 1000.8
20260506152233 77 0 1.0 6.0 0.00 0.00 0.00 72 1000.9
20260506151723 78 23 1.0 6.0 0.00 0.00 0.00 72 1001.0
20260506151213 78 315 0.0 2.0 0.00 0.00 0.00 70 1001.1
20260506150703 78 0 0.0 2.0 0.00 0.00 0.00 72 1001.3
20260506150153 77 293 0.0 2.0 0.00 0.00 0.00 71 1001.5
20260506145642 76 270 0.0 4.0 0.00 0.00 0.00 73 1001.3
20260506144623 77 338 1.0 4.0 0.00 0.00 0.00 75 1001.5
20260506144112 76 90 0.0 2.0 0.00 0.00 0.00 76 1001.7
20260506143603 76 68 0.0 4.0 0.00 0.00 0.00 76 1001.6
20260506143052 77 90 0.0 4.0 0.00 0.00 0.00 76 1001.8
20260506142542 76 338 0.0 2.0 0.00 0.00 0.00 79 1001.9
20260506142031 76 68 0.0 2.0 0.00 0.00 0.00 77 1001.9
20260506141523 75 23 0.0 2.0 0.00 0.00 0.00 79 1001.8
20260506141012 75 0 0.0 0.0 0.00 0.00 0.00 78 1001.9
20260506140501 75 113 0.0 6.0 0.00 0.00 0.00 78 1002.1
20260506135952 73 90 0.0 6.0 0.00 0.00 0.00 81 1001.9
20260506135442 74 45 0.0 4.0 0.00 0.00 0.00 82 1002.1
20260506134932 74 293 0.0 0.0 0.00 0.00 0.00 79 1001.8
20260506134421 73 315 0.0 0.0 0.00 0.00 0.00 79 1002.3
20260506133400 73 338 0.0 0.0 0.00 0.00 0.00 80 1002.3
20260506132850 73 45 0.0 0.0 0.00 0.00 0.00 79 1002.2
20260506132340 73 315 0.0 0.0 0.00 0.00 0.00 80 1002.2
20260506131831 72 135 0.0 0.0 0.00 0.00 0.00 80 1002.3
20260506131321 72 68 0.0 0.0 0.00 0.00 0.00 81 1002.2
20260506130810 71 68 0.0 0.0 0.00 0.00 0.00 82 1002.1
20260506130300 71 113 0.0 0.0 0.00 0.00 0.00 83 1002.4
20260506125240 70 158 0.0 0.0 0.00 0.00 0.00 83 1002.2
20260506124730 69 113 0.0 0.0 0.00 0.00 0.00 84 1002.3
20260506124220 69 113 0.0 0.0 0.00 0.00 0.00 86 1002.2
20260506123710 68 113 0.0 0.0 0.00 0.00 0.00 87 1002.1
20260506123159 68 113 0.0 0.0 0.00 0.00 0.00 87 1002.3
20260506122649 67 158 0.0 0.0 0.00 0.00 0.00 88 1002.0
20260506122140 66 158 0.0 0.0 0.00 0.00 0.00 90 1001.9
20260506121629 66 135 0.0 0.0 0.00 0.00 0.00 90 1002.2
20260506121118 65 135 0.0 0.0 0.00 0.00 0.00 91 1002.1
20260506120059 62 203 0.0 0.0 0.00 0.00 0.00 95 1002.2
20260506115039 60 203 0.0 0.0 0.00 0.00 0.00 97 1002.3
20260506114528 59 203 0.0 0.0 0.00 0.00 0.00 97 1002.1
20260506114018 58 203 0.0 0.0 0.00 0.00 0.00 98 1002.1
20260506113509 58 203 0.0 0.0 0.00 0.00 0.00 98 1002.0
20260506112958 58 203 0.0 0.0 0.00 0.00 0.00 98 1001.9
20260506111938 56 180 0.0 0.0 0.00 0.00 0.00 99 1001.6
20260506111428 56 180 0.0 0.0 0.00 0.00 0.00 98 1002.1
20260506110917 56 180 0.0 0.0 0.00 0.00 0.00 99 1002.0
20260506105858 57 225 0.0 0.0 0.00 0.00 0.00 99 1002.2
20260506105347 56 203 0.0 0.0 0.00 0.00 0.00 99 1001.7
20260506104837 56 203 0.0 0.0 0.00 0.00 0.00 99 1001.9
20260506103817 56 225 0.0 0.0 0.00 0.00 0.00 97 1001.9
20260506102757 57 158 0.0 0.0 0.00 0.00 0.00 98 1001.6
20260506102246 57 135 0.0 0.0 0.00 0.00 0.00 99 1001.5
20260506101737 56 135 0.0 0.0 0.00 0.00 0.00 98 1001.7
20260506100716 57 135 0.0 0.0 0.00 0.00 0.00 98 1001.5
20260506100206 57 135 0.0 0.0 0.00 0.00 0.00 97 1001.8
20260506095656 58 158 0.0 0.0 0.00 0.00 0.00 97 1001.6
20260506095146 58 158 0.0 0.0 0.00 0.00 0.00 97 1001.5
20260506094126 58 135 0.0 0.0 0.00 0.00 0.00 97 1001.5
20260506093616 59 135 0.0 0.0 0.00 0.00 0.00 97 1001.6
20260506093106 59 158 0.0 0.0 0.00 0.00 0.00 98 1001.3
20260506092045 59 158 0.0 0.0 0.00 0.00 0.00 97 1001.2
20260506091535 58 180 0.0 0.0 0.00 0.00 0.00 97 1001.3
20260506091025 58 158 0.0 0.0 0.00 0.00 0.00 96 1001.2
20260506090005 58 158 0.0 0.0 0.00 0.00 0.00 97 1001.1
20260506085455 58 158 0.0 0.0 0.00 0.00 0.00 97 1001.3
20260506084945 57 180 0.0 0.0 0.00 0.00 0.00 97 1001.5
20260506084434 57 158 0.0 0.0 0.00 0.00 0.00 97 1001.3
20260506083925 57 158 0.0 0.0 0.00 0.00 0.00 97 1001.3
20260506083414 57 158 0.0 0.0 0.00 0.00 0.00 97 1001.5
20260506082905 57 158 0.0 0.0 0.00 0.00 0.00 97 1001.3
20260506081843 57 135 0.0 0.0 0.00 0.00 0.00 97 1001.5
20260506081334 57 135 0.0 0.0 0.00 0.00 0.00 97 1001.7
20260506080823 57 135 0.0 0.0 0.00 0.00 0.00 97 1001.9
20260506080313 57 135 0.0 0.0 0.00 0.00 0.00 98 1001.7
20260506073213 61 180 0.0 0.0 0.00 0.00 0.00 96 1002.0
20260506072702 61 180 0.0 0.0 0.00 0.00 0.00 96 1001.9
20260506072153 61 180 0.0 0.0 0.00 0.00 0.00 96 1002.1
20260506071642 61 180 0.0 0.0 0.00 0.00 0.00 96 1002.2
20260506071133 60 180 0.0 0.0 0.00 0.00 0.00 96 1002.1
20260506070622 60 203 0.0 0.0 0.00 0.00 0.00 95 1002.2
20260506061951 61 158 0.0 0.0 0.00 0.00 0.00 95 1003.3
20260506061441 61 180 0.0 0.0 0.00 0.00 0.00 95 1003.1
20260506060932 61 203 0.0 0.0 0.00 0.00 0.00 94 1003.3
20260506060422 61 203 0.0 0.0 0.00 0.00 0.00 94 1003.5
20260506050940 62 225 0.0 0.0 0.00 0.00 0.00 95 1003.8
20260506050430 62 203 0.0 0.0 0.00 0.00 0.00 95 1003.7
20260506044900 64 180 0.0 0.0 0.00 0.00 0.00 94 1004.1
20260506044351 64 158 0.0 0.0 0.00 0.00 0.00 94 1004.2
20260506043839 64 158 0.0 0.0 0.00 0.00 0.00 94 1004.4
20260506042819 64 180 0.0 0.0 0.00 0.00 0.00 93 1004.7
20260506042309 64 203 0.0 0.0 0.00 0.00 0.00 93 1004.7
20260506041759 64 203 0.0 0.0 0.00 0.00 0.00 94 1004.7
20260506041249 64 203 0.0 0.0 0.00 0.00 0.00 94 1004.8
20260506040230 63 203 0.0 0.0 0.00 0.00 0.00 95 1004.9
20260506035720 63 180 0.0 0.0 0.00 0.00 0.00 95 1005.0
20260506035209 63 203 0.0 0.0 0.00 0.00 0.00 95 1004.9
20260506034659 63 225 0.0 0.0 0.00 0.00 0.00 95 1005.1
20260506034149 63 158 0.0 0.0 0.00 0.00 0.00 95 1004.9
20260506033639 63 158 0.0 0.0 0.00 0.00 0.00 95 1005.1
20260506033128 63 225 0.0 0.0 0.00 0.00 0.00 94 1004.9
20260506032618 63 135 0.0 0.0 0.00 0.00 0.00 94 1005.0
20260506032108 63 203 0.0 0.0 0.00 0.00 0.00 94 1005.0
20260506031557 63 203 0.0 0.0 0.00 0.00 0.00 94 1005.2
20260506031047 64 225 0.0 0.0 0.00 0.00 0.00 93 1005.0
20260506030541 63 180 0.0 0.0 0.00 0.00 0.00 94 1004.9
20260506030028 63 203 0.0 0.0 0.00 0.00 0.00 94 1005.2
20260506025009 63 180 0.0 0.0 0.00 0.00 0.00 93 1005.2
20260506024457 63 180 0.0 0.0 0.00 0.00 0.00 94 1005.3
20260506023948 63 180 0.0 0.0 0.00 0.00 0.00 94 1005.5
20260506023437 63 158 0.0 0.0 0.00 0.00 0.00 94 1005.4
20260506022927 62 203 0.0 0.0 0.00 0.00 0.00 94 1005.6
20260506022417 62 203 0.0 0.0 0.00 0.00 0.00 94 1005.5
20260506021907 62 135 0.0 0.0 0.00 0.00 0.00 94 1005.6
20260506021357 62 158 0.0 0.0 0.00 0.00 0.00 94 1005.7
20260506020337 62 135 0.0 0.0 0.00 0.00 0.00 94 1005.6
20260506015827 62 135 0.0 0.0 0.00 0.00 0.00 94 1005.6
20260506015316 62 135 0.0 0.0 0.00 0.00 0.00 94 1005.5
20260506014806 62 135 0.0 0.0 0.00 0.00 0.00 94 1005.4
20260506014257 62 135 0.0 0.0 0.00 0.00 0.00 94 1005.4
20260506013747 62 135 0.0 0.0 0.00 0.00 0.00 95 1005.4
20260506013235 62 135 0.0 0.0 0.00 0.00 0.00 95 1005.4
20260506012725 62 135 0.0 0.0 0.00 0.00 0.00 95 1005.4
20260506012216 61 113 0.0 0.0 0.00 0.00 0.00 95 1005.1
20260506011705 61 113 0.0 0.0 0.00 0.00 0.00 95 1005.4
20260506011155 61 113 0.0 0.0 0.00 0.00 0.00 95 1005.0
20260506010645 62 113 0.0 0.0 0.00 0.00 0.00 95 1005.2
20260506010135 62 135 0.0 0.0 0.00 0.00 0.00 95 1005.3
20260506005625 62 158 0.0 0.0 0.00 0.00 0.00 94 1005.2
20260506005114 62 180 0.0 0.0 0.00 0.00 0.00 94 1005.3
20260506004605 62 225 0.0 0.0 0.00 0.00 0.00 94 1005.1
20260506004055 62 203 0.0 0.0 0.00 0.00 0.00 93 1004.9
20260506003545 62 203 0.0 0.0 0.00 0.00 0.00 93 1005.0
20260506003044 62 203 0.0 0.0 0.00 0.00 0.00 93 1005.1
20260506002525 62 180 0.0 0.0 0.00 0.00 0.00 93 1005.0
20260506002015 62 203 0.0 0.0 0.00 0.00 0.00 93 1005.0
20260506001504 62 180 0.0 0.0 0.00 0.00 0.00 93 1004.5
20260506000954 62 180 0.0 0.0 0.00 0.00 0.00 93 1004.8
20260505235934 62 203 0.0 0.0 0.00 0.00 0.00 92 1004.6
20260505235424 62 203 0.0 0.0 0.00 0.00 0.00 92 1004.6
20260505234405 62 225 0.0 0.0 0.00 0.00 0.00 92 1004.5
20260505233852 62 203 0.0 0.0 0.00 0.00 0.00 92 1004.3
20260505233344 62 225 0.0 0.0 0.00 0.00 0.00 91 1004.4
20260505232833 63 203 0.0 2.0 0.00 0.00 0.00 91 1004.2
20260505232323 63 225 0.0 2.0 0.00 0.00 0.00 90 1004.5
20260505231812 66 248 0.0 2.0 0.00 0.00 0.00 87 1004.2
20260505231304 65 225 0.0 0.0 0.00 0.00 0.00 88 1004.4
20260505230752 65 225 0.0 0.0 0.00 0.00 0.00 89 1004.3
20260505230244 65 225 0.0 0.0 0.00 0.00 0.00 89 1004.2
20260505225222 65 203 0.0 0.0 0.00 0.00 0.00 89 1004.3
20260505224712 65 203 0.0 0.0 0.00 0.00 0.00 87 1004.4
20260505224203 65 203 0.0 0.0 0.00 0.00 0.00 87 1003.8
20260505223652 65 203 0.0 0.0 0.00 0.00 0.00 87 1003.9
20260505223142 65 203 0.0 0.0 0.00 0.00 0.00 87 1003.7
20260505222121 68 293 0.0 0.0 0.00 0.00 0.00 84 1003.9
20260505221612 67 293 0.0 0.0 0.00 0.00 0.00 84 1004.1
20260505221101 67 0 0.0 0.0 0.00 0.00 0.00 84 1003.7
20260505220552 67 0 0.0 0.0 0.00 0.00 0.00 83 1003.6
20260505220041 67 0 0.0 0.0 0.00 0.00 0.00 82 1003.4
20260505215531 68 0 0.0 0.0 0.00 0.00 0.00 81 1003.6
20260505215021 69 0 0.0 0.0 0.00 0.00 0.00 79 1003.5
20260505214514 69 23 0.0 0.0 0.00 0.00 0.00 79 1003.8
20260505214001 71 23 0.0 0.0 0.00 0.00 0.00 77 1003.4
20260505213451 71 23 0.0 0.0 0.00 0.00 0.00 76 1003.3
20260505212941 71 23 0.0 0.0 0.00 0.00 0.00 76 1003.3
20260505212431 71 23 0.0 0.0 0.00 0.00 0.00 75 1003.4
20260505211919 72 23 0.0 0.0 0.00 0.00 0.00 74 1003.3
20260505211410 72 23 0.0 0.0 0.00 0.00 0.00 74 1003.2
20260505210859 73 23 0.0 0.0 0.00 0.00 0.00 73 1003.1
20260505210351 73 23 0.0 2.0 0.00 0.00 0.00 72 1003.3
20260505205839 73 0 0.0 4.0 0.00 0.00 0.00 71 1003.2
20260505204309 75 23 0.0 6.0 0.00 0.00 0.00 68 1003.1
20260505203800 75 23 4.0 7.0 0.00 0.00 0.00 67 1003.0
20260505202229 77 23 1.0 4.0 0.00 0.00 0.00 63 1002.6
20260505201718 77 23 2.0 6.0 0.00 0.00 0.00 64 1002.7
20260505201211 76 23 2.0 6.0 0.00 0.00 0.00 65 1002.8
20260505200659 78 0 2.0 4.0 0.00 0.00 0.00 64 1002.7
20260505200148 77 23 1.0 7.0 0.00 0.00 0.00 63 1002.6
20260505195638 76 0 2.0 7.0 0.00 0.00 0.00 64 1002.8
20260505195128 78 0 2.0 8.0 0.00 0.00 0.00 62 1002.9
20260505194619 78 0 4.0 8.0 0.00 0.00 0.00 62 1002.8
20260505194108 78 338 0.0 6.0 0.00 0.00 0.00 61 1003.0
20260505193558 78 338 3.0 6.0 0.00 0.00 0.00 61 1003.0
20260505193048 79 45 0.0 6.0 0.00 0.00 0.00 60 1002.7
20260505192027 79 0 0.0 4.0 0.00 0.00 0.00 58 1002.7
20260505191517 78 0 2.0 4.0 0.00 0.00 0.00 62 1002.7
20260505191007 79 135 0.0 4.0 0.00 0.00 0.00 61 1002.5
20260505190457 79 45 0.0 7.0 0.00 0.00 0.00 59 1002.7
20260505185947 78 0 1.0 7.0 0.00 0.00 0.00 61 1002.8
20260505185437 80 0 0.0 6.0 0.00 0.00 0.00 59 1002.5
20260505184927 80 90 0.0 4.0 0.00 0.00 0.00 57 1002.7
20260505184417 79 23 0.0 4.0 0.00 0.00 0.00 59 1002.9
20260505183906 79 90 0.0 6.0 0.00 0.00 0.00 58 1002.8
20260505183356 78 23 3.0 7.0 0.00 0.00 0.00 61 1003.0
20260505182336 79 23 3.0 8.0 0.00 0.00 0.00 60 1003.0
20260505181826 78 0 0.0 8.0 0.00 0.00 0.00 61 1003.1
20260505181316 78 23 1.0 7.0 0.00 0.00 0.00 61 1003.2
20260505180805 78 338 1.0 7.0 0.00 0.00 0.00 62 1003.1
20260505180256 79 293 0.0 7.0 0.00 0.00 0.00 60 1003.0
20260505175746 78 338 0.0 7.0 0.00 0.00 0.00 61 1003.1
20260505174725 77 23 1.0 7.0 0.00 0.00 0.00 62 1003.3
20260505173704 78 315 2.0 4.0 0.00 0.00 0.00 62 1003.4
20260505173155 78 45 1.0 8.0 0.00 0.00 0.00 63 1003.4
20260505172645 76 23 0.0 8.0 0.00 0.00 0.00 65 1003.5
20260505172136 77 338 2.0 9.0 0.00 0.00 0.00 63 1003.5
20260505171624 76 0 2.0 9.0 0.00 0.00 0.00 65 1003.6